User: anonymous
Location: Unspecified
(0.0000°N, 0.0000°E)
Time: 05:56:52
(UTC+00:00)
Language:

ISS - Orbit

View from above orbital plane
View from above orbital plane
View from above satellite
View from above satellite

Ground track
Ground track

The orbit data is extracted from the following two-line orbital elements,

1 25544U 98067A   14272.65482907  .00011834  00000-0  20962-3 0  1774
2 25544 051.6468 301.7832 0002046 122.3172 327.0344 15.50725788907531
Epoch (UTC): 29 September 2014 15:42:57
Eccentricity: 0.0002046
inclination: 51.6468°
perigee height: 413 km
apogee height: 416 km
right ascension of ascending node: 301.7832°
argument of perigee: 122.3172°
revolutions per day: 15.50725788
mean anomaly at epoch: 327.0344°
orbit number at epoch: 90753

The dashed part of the orbit path shows where the satellite is in the earth's shadow,  

DLR